Location: Meinert
(37.9441°N, 122.0275°W)
Time: 19:28:24
(UTC+00:00)

Cosmos 2369 Rocket - Pass Details

Date: 18 April 2024
Orbit: 830 x 850 km, 71.0° (Epoch: 22 May)

Event Time Altitude Azimuth Distance (km) Brightness Sun altitude
Rises 12:26:13 0° 337° (NNW) 3,384 5.4 -12.2°
Reaches altitude 10° 12:28:40 10° 337° (NNW) 2,444 4.6 -11.8°
Maximum altitude 12:34:16 88° 250° (WSW) 835 2.2 -10.8°
Drops below altitude 10° 12:39:51 10° 160° (SSE) 2,426 4.6 -9.8°
Sets 12:42:16 0° 160° (SSE) 3,356 5.3 -9.3°
